Aurora, CO

5:52 AM MST on January 16, 2018 (GMT -0700)
Buckley Air Force Base

Weather History for KBKF - July, 2013

Change the Weather History Date:

Thursday, July 18, 2013

  Actual Average Record
Temperature  
Mean Temperature 76 °F -  
Max Temperature 91 °F 85 °F 96 °F (1998)
Min Temperature 62 °F 59 °F 56 °F (2015)
Cooling Degree Days 12    
Growing Degree Days 26 (Base 50)    
Moisture  
Dew Point 51 °F    
Average Humidity 46    
Maximum Humidity 68    
Minimum Humidity 23    
Precipitation  
Precipitation 0.00 in - - ()
Sea Level Pressure  
Sea Level Pressure 29.95 in    
Wind  
Wind Speed 14 mph (WNW)    
Max Wind Speed 25 mph    
Max Gust Speed 33 mph    
Visibility 10 miles    
Events      
Averages and records for this station are not official NWS values.
T = Trace of Precipitation, MM = Missing Value Source: NWS Daily Summary

Daily Weather History Graph

Daily Weather History Graph

Search for Another Location

Airport or City:

Trip Planner

Search our weather history database for the weather conditions in past years. The results will help you decide how hot, cold, wet, or windy it might be!

Date:

Astronomy

Jul. 18, 2013 Rise Set
Actual Time 5:46 AM MDT 8:23 PM MDT
Civil Twilight 5:14 AM MDT 8:55 PM MDT
Nautical Twilight 4:35 AM MDT 9:34 PM MDT
Astronomical Twilight 3:51 AM MDT 10:18 PM MDT
Moon 4:23 PM MDT (7/18) 1:38 AM MDT (7/18)
Length of Visible Light 15h 40m
Length of Day
14h 37m
Waxing Gibbous, 78% of the Moon is Illuminated
Jul 18
Waxing Gibbous
Jul 22
Full
Jul 29
Last Quarter
Aug 6
New
Aug 14
First Quarter

Hourly Weather History & Observations

Time (MDT) Temp. Dew Point Humidity Pressure Visibility Wind Dir Wind Speed Gust Speed Precip Events Conditions
12:55 AM 69.8 °F 50.0 °F 49% 29.94 in 25.0 mi South 23.0 mph 29.9 mph N/A   Partly Cloudy
1:55 AM 68.0 °F 50.0 °F 52% 29.92 in 25.0 mi South 19.6 mph - N/A   Partly Cloudy
2:55 AM 66.2 °F 51.8 °F 60% 29.92 in 25.0 mi SSW 15.0 mph - N/A   Partly Cloudy
3:55 AM 64.4 °F 51.8 °F 64% 29.92 in 25.0 mi SSW 5.8 mph - N/A   Partly Cloudy
4:55 AM 62.6 °F 51.8 °F 68% 29.93 in 25.0 mi SW 6.9 mph - N/A   Partly Cloudy
5:55 AM 62.6 °F 50.0 °F 63% 29.95 in 70.0 mi SW 5.8 mph - N/A   Clear
6:55 AM 64.4 °F 51.8 °F 64% 29.96 in 70.0 mi WSW 5.8 mph - N/A   Clear
7:55 AM 69.8 °F 53.6 °F 56% 29.97 in 70.0 mi West 5.8 mph - N/A   Clear
8:55 AM 75.2 °F 53.6 °F 47% 29.98 in 70.0 mi WSW 4.6 mph - N/A   Partly Cloudy
9:55 AM 78.8 °F 51.8 °F 39% 29.98 in 70.0 mi NNW 5.8 mph - N/A   Partly Cloudy
10:55 AM 82.4 °F 50.0 °F 32% 29.97 in 70.0 mi North 12.7 mph - N/A   Partly Cloudy
11:55 AM 84.2 °F 50.0 °F 30% 29.95 in 70.0 mi North 12.7 mph - N/A   Partly Cloudy
12:55 PM 87.8 °F 50.0 °F 27% 29.94 in 70.0 mi NW 12.7 mph - N/A   Partly Cloudy
1:55 PM 89.6 °F 50.0 °F 26% 29.91 in 70.0 mi NE 6.9 mph 17.3 mph N/A   Partly Cloudy
2:55 PM 91.4 °F 48.2 °F 23% 29.90 in 70.0 mi North 11.5 mph - N/A   Partly Cloudy
3:55 PM 91.4 °F 48.2 °F 23% 29.89 in 70.0 mi NNE 4.6 mph - N/A   Partly Cloudy
4:55 PM 86.0 °F 46.4 °F 25% 29.91 in 70.0 mi NNW 25.3 mph 32.2 mph N/A   Scattered Clouds
5:55 PM 82.4 °F 48.2 °F 30% 29.94 in 25.0 mi NNW 23.0 mph 33.4 mph N/A   Scattered Clouds
6:55 PM 77.0 °F 50.0 °F 39% 29.95 in 25.0 mi NNW 17.3 mph 24.2 mph N/A   Mostly Cloudy
7:55 PM 73.4 °F 53.6 °F 50% 29.97 in 25.0 mi NNW 17.3 mph 21.9 mph N/A   Mostly Cloudy
8:55 PM 71.6 °F 53.6 °F 53% 29.98 in 25.0 mi NW 12.7 mph - N/A   Mostly Cloudy
9:55 PM 69.8 °F 55.4 °F 60% 30.02 in 25.0 mi NW 15.0 mph - N/A   Mostly Cloudy
10:55 PM 68.0 °F 55.4 °F 64% 30.02 in 10.0 mi WNW 10.4 mph - N/A   Mostly Cloudy
11:55 PM 68.0 °F 53.6 °F 60% 30.01 in 10.0 mi NW 6.9 mph - N/A   Mostly Cloudy